Change the Weather History Date:

Saturday, November 10, 2012

  Actual Average (KHCD) Record (KHCD)
Temperature  
Mean Temperature 57 °F -  
Max Temperature 71 °F 41 °F 71 °F (2012)
Min Temperature 43 °F 25 °F 5 °F (1966)
Degree Days  
Heating Degree Days 8    
Growing Degree Days 7 (Base 50)    
Moisture  
Dew Point 47 °F    
Average Humidity 80    
Maximum Humidity 96    
Minimum Humidity 47    
Precipitation  
Precipitation 0.32 in - - ()
Sea Level Pressure  
Sea Level Pressure 29.59 in    
Wind  
Wind Speed 13 mph (SE)    
Max Wind Speed 20 mph    
Max Gust Speed 25 mph    
Visibility 6 miles    
Events Rain , Thunderstorm    
Averages and records for this station are not official NWS values.
T = Trace of Precipitation, MM = Missing Value Source: NWS Daily Summary

Daily Weather History Graph

Daily Weather History Graph

Search for Another Location

Airport or City:

Trip Planner

Search our weather history database for the weather conditions in past years. The results will help you decide how hot, cold, wet, or windy it might be!

Date:

Astronomy

Nov. 10, 2012 Rise Set
Actual Time 7:07 AM CST 4:52 PM CST
Civil Twilight 6:36 AM CST 5:24 PM CST
Nautical Twilight 6:00 AM CST 5:59 PM CST
Astronomical Twilight 5:26 AM CST 6:33 PM CST
Moon 3:04 AM CST (11/10) 2:47 PM CST (11/10)
Length of Visible Light 10h 48m
Length of Day
9h 45m
Waning Crescent, 14% of the Moon is Illuminated
Nov 10
Waning Crescent
Nov 13
New
Nov 20
First Quarter
Nov 28
Full
Dec 6
Last Quarter

Hourly Weather History & Observations

Time (CST) Temp. Windchill Dew Point Humidity Pressure Visibility Wind Dir Wind Speed Gust Speed Precip Events Conditions
12:16 AM 44.1 °F 35.9 °F 39.4 °F 84% 29.85 in 7.0 mi East 19.6 mph 23.0 mph N/A   Mostly Cloudy
12:35 AM 43.9 °F 37.5 °F 39.7 °F 85% 29.85 in 7.0 mi East 12.7 mph - N/A   Mostly Cloudy
12:55 AM 43.9 °F 36.5 °F 40.1 °F 87% 29.84 in 5.0 mi East 16.1 mph 20.7 mph N/A   Overcast
1:16 AM 43.9 °F 36.8 °F 40.1 °F 87% 29.82 in 5.0 mi East 15.0 mph 18.4 mph N/A   Overcast
1:35 AM 44.1 °F 37.7 °F 40.5 °F 87% 29.82 in 4.0 mi East 12.7 mph 19.6 mph N/A   Overcast
1:55 AM 44.1 °F 36.8 °F 40.6 °F 88% 29.81 in 4.0 mi East 16.1 mph 23.0 mph N/A   Overcast
2:16 AM 44.4 °F 38.2 °F 41.0 °F 88% 29.80 in 4.0 mi East 12.7 mph 21.9 mph N/A   Overcast
2:35 AM 44.6 °F 37.4 °F 41.2 °F 88% 29.79 in 3.0 mi East 16.1 mph 21.9 mph N/A   Overcast
2:56 AM 44.6 °F 37.4 °F 41.4 °F 88% 29.78 in 3.0 mi East 16.1 mph 20.7 mph N/A   Overcast
3:15 AM 44.6 °F 37.2 °F 41.5 °F 89% 29.77 in 3.0 mi East 17.3 mph 25.3 mph N/A Rain , Thunderstorm Light Thunderstorms and Rain
3:36 AM 44.4 °F 37.2 °F 42.1 °F 91% 29.76 in 2.5 mi East 16.1 mph - N/A   Overcast
3:56 AM 44.6 °F 37.2 °F 42.3 °F 91% 29.75 in 2.5 mi East 17.3 mph 20.7 mph N/A Thunderstorm Overcast
4:15 AM 44.6 °F 38.1 °F 42.4 °F 92% 29.74 in 3.0 mi East 13.8 mph 24.2 mph N/A   Overcast
4:36 AM 44.6 °F 37.8 °F 42.4 °F 92% 29.73 in 3.0 mi East 15.0 mph 20.7 mph N/A   Overcast
4:55 AM 44.6 °F 37.2 °F 42.8 °F 93% 29.72 in 2.5 mi East 17.3 mph 23.0 mph N/A   Overcast
5:15 AM 44.8 °F 37.1 °F 43.0 °F 93% 29.71 in 2.5 mi East 18.4 mph 21.9 mph N/A   Overcast
5:36 AM 45.0 °F 37.6 °F 43.2 °F 93% 29.70 in 2.5 mi East 17.3 mph 23.0 mph N/A   Overcast
5:55 AM 45.5 °F 38.6 °F 43.3 °F 92% 29.69 in 2.5 mi East 16.1 mph 23.0 mph N/A   Overcast
6:36 AM 45.5 °F 38.3 °F 43.7 °F 93% 29.68 in 2.5 mi East 17.3 mph 25.3 mph N/A   Overcast
6:56 AM 45.7 °F 38.3 °F 43.7 °F 93% 29.67 in 2.5 mi East 18.4 mph 23.0 mph N/A   Overcast
7:15 AM 45.9 °F 38.8 °F 43.9 °F 93% 29.67 in 2.0 mi East 17.3 mph 21.9 mph N/A   Overcast
7:35 AM 45.9 °F 39.7 °F 44.2 °F 94% 29.67 in 1.8 mi East 13.8 mph 23.0 mph N/A   Overcast
7:56 AM 45.9 °F 40.4 °F 44.4 °F 95% 29.68 in 1.5 mi East 11.5 mph - N/A   Overcast
8:15 AM 46.0 °F 39.9 °F 44.6 °F 95% 29.66 in 1.0 mi East 13.8 mph 20.7 mph N/A   Overcast
8:35 AM 46.4 °F 40.4 °F 45.0 °F 95% 29.65 in 1.0 mi East 13.8 mph - N/A   Overcast
8:56 AM 46.6 °F - 45.5 °F 96% 29.64 in 1.0 mi East 15.0 mph - N/A   Overcast
9:15 AM 46.8 °F - 45.5 °F 95% 29.63 in 0.8 mi East 15.0 mph - N/A   Overcast
9:35 AM 47.3 °F - 46.0 °F 95% 29.62 in 0.8 mi East 15.0 mph - N/A   Overcast
9:55 AM 47.7 °F - 46.6 °F 96% 29.61 in 1.0 mi East 12.7 mph - N/A   Overcast
10:16 AM 48.2 °F - 46.8 °F 95% 29.60 in 1.2 mi East 11.5 mph - N/A   Overcast
10:35 AM 48.7 °F - 47.3 °F 95% 29.59 in 1.5 mi East 13.8 mph - N/A   Overcast
10:55 AM 49.5 °F - 47.8 °F 94% 29.58 in 1.5 mi East 12.7 mph - N/A   Overcast
11:16 AM 50.7 °F - 49.1 °F 94% 29.56 in 1.8 mi East 11.5 mph - N/A   Overcast
11:35 AM 52.5 °F - 50.5 °F 93% 29.55 in 2.0 mi East 13.8 mph - N/A   Overcast
11:55 AM 54.5 °F - 51.8 °F 91% 29.54 in 3.0 mi East 12.7 mph - N/A   Scattered Clouds
12:15 PM 56.3 °F - 52.7 °F 88% 29.52 in 4.0 mi East 11.5 mph - N/A   Mostly Cloudy
12:36 PM 59.0 °F - 54.9 °F 86% 29.51 in 5.0 mi ESE 8.1 mph - N/A   Mostly Cloudy
12:55 PM 65.8 °F - 55.9 °F 70% 29.51 in 10.0 mi South 12.7 mph 19.6 mph N/A   Mostly Cloudy
1:16 PM 68.2 °F - 55.8 °F 64% 29.49 in 10.0 mi SSE 11.5 mph - N/A   Scattered Clouds
1:36 PM 69.3 °F - 54.7 °F 60% 29.49 in 10.0 mi South 15.0 mph 21.9 mph N/A   Clear
1:55 PM 70.7 °F - 54.9 °F 57% 29.48 in 10.0 mi SSE 13.8 mph 21.9 mph N/A   Clear
2:16 PM 70.9 °F - 53.6 °F 54% 29.48 in 10.0 mi South 10.4 mph 25.3 mph N/A   Clear
2:35 PM 71.6 °F - 52.7 °F 51% 29.47 in 10.0 mi South 12.7 mph 20.7 mph N/A   Clear
2:56 PM 71.6 °F - 50.9 °F 48% 29.47 in 10.0 mi South 15.0 mph 21.9 mph N/A   Clear
3:15 PM 71.2 °F - 51.1 °F 49% 29.47 in 10.0 mi South 12.7 mph 20.7 mph N/A   Clear
3:36 PM 70.7 °F - 50.5 °F 49% 29.48 in 10.0 mi South 15.0 mph 23.0 mph N/A   Clear
3:55 PM 70.0 °F - 48.9 °F 47% 29.48 in 10.0 mi South 11.5 mph 17.3 mph N/A   Clear
4:16 PM 68.0 °F - 49.6 °F 52% 29.48 in 10.0 mi South 8.1 mph - N/A   Clear
4:35 PM 66.7 °F - 49.1 °F 53% 29.48 in 10.0 mi SSW 9.2 mph - N/A   Clear
4:55 PM 64.6 °F - 48.2 °F 55% 29.48 in 10.0 mi SSW 6.9 mph - N/A   Clear
5:16 PM 64.6 °F - 47.7 °F 54% 29.48 in 10.0 mi SSW 4.6 mph - N/A   Clear
5:35 PM 62.8 °F - 47.7 °F 58% 29.48 in 10.0 mi SW 3.5 mph - N/A   Clear
5:56 PM 61.3 °F - 47.3 °F 60% 29.49 in 10.0 mi SSW 3.5 mph - N/A   Clear
6:15 PM 60.8 °F - 46.9 °F 60% 29.49 in 10.0 mi South 4.6 mph - N/A   Clear
6:36 PM 60.3 °F - 47.3 °F 62% 29.50 in 10.0 mi SSW 4.6 mph - N/A   Scattered Clouds
6:55 PM 59.0 °F - 46.4 °F 63% 29.49 in 10.0 mi West 4.6 mph - N/A   Mostly Cloudy
7:16 PM 56.7 °F - 46.8 °F 69% 29.48 in 10.0 mi Calm Calm - N/A   Mostly Cloudy
7:35 PM 53.8 °F - 46.0 °F 75% 29.46 in 10.0 mi Calm Calm - N/A   Scattered Clouds
7:55 PM 52.9 °F - 46.2 °F 78% 29.45 in 10.0 mi Calm Calm - N/A   Clear
8:16 PM 53.2 °F - 46.6 °F 78% 29.44 in 10.0 mi Calm Calm - N/A   Scattered Clouds
8:35 PM 53.1 °F - 46.9 °F 80% 29.45 in 10.0 mi Calm Calm - N/A   Mostly Cloudy
8:56 PM 53.4 °F - 46.8 °F 78% 29.45 in 10.0 mi Calm Calm - N/A   Mostly Cloudy
9:15 PM 54.9 °F - 47.3 °F 76% 29.48 in 10.0 mi West 13.8 mph 25.3 mph N/A   Overcast
9:36 PM 52.3 °F - 46.4 °F 80% 29.49 in 10.0 mi West 12.7 mph - N/A   Overcast
10:16 PM 51.1 °F - 47.3 °F 87% 29.48 in 7.0 mi WNW 9.2 mph - 0.01 in Rain Light Rain
10:35 PM 50.4 °F - 48.2 °F 92% 29.49 in 2.5 mi Calm Calm - 0.20 in Rain , Thunderstorm Rain
10:56 PM 50.4 °F - 48.6 °F 94% 29.49 in 5.0 mi SSE 4.6 mph - 0.24 in Rain Light Rain
11:35 PM 50.9 °F - 49.5 °F 95% 29.50 in 5.0 mi South 3.5 mph - 0.07 in Rain Light Rain
11:56 PM 51.4 °F - 50.0 °F 95% 29.50 in 5.0 mi SW 5.8 mph - 0.08 in Rain Rain